G6FJI-13 Weather Reports


Display with metric or nautical units.
time (UTC)temp
F
wind
direction
speed
MPH
gust
MPH
rain 1hr
in
rain 24hr
in
rain mn
in
humidity
%
barometer
mb
20260508014351 46 0.0 0.0 0.00 0.00 0.00 89 1018.9
20260508013239 46 0.0 0.0 0.00 0.00 0.00 88 1019.0
20260508012311 46 0.0 0.0 0.00 0.00 0.00 88 1019.1
20260508011241 46 0.0 0.0 0.00 0.00 0.00 87 1019.0
20260508010412 46 0.0 0.0 0.00 0.00 0.00 87 1018.8
20260508005301 47 0.0 0.0 0.00 0.00 0.00 86 1018.9
20260508004212 47 0.0 0.0 0.00 0.00 0.00 86 1018.9
20260508003141 47 0.0 0.0 0.00 0.00 0.00 85 1018.9
20260508002214 48 0.0 0.0 0.00 0.00 0.00 85 1019.1
20260508001143 48 0.0 0.0 0.00 0.00 0.00 85 1019.1
20260508000215 48 0.0 0.0 0.00 0.00 0.00 84 1019.1
20260507235203 49 0.0 0.0 0.00 0.00 0.00 84 1019.0
20260507234216 49 0.0 0.0 0.00 0.00 0.00 84 1019.3
20260507233144 50 0.0 0.0 0.00 0.00 0.00 82 1019.3
20260507232101 50 0.0 1.0 0.00 0.00 0.00 81 1019.2
20260507231104 51 0.0 1.0 0.00 0.00 0.00 81 1019.3
20260507230002 51 0.0 1.0 0.00 0.00 0.00 81 1019.3
20260507224946 51 0.0 0.0 0.00 0.00 0.00 80 1019.3
20260507224038 51 0.0 0.0 0.00 0.00 0.00 79 1019.3
20260507222947 52 0.0 1.0 0.00 0.00 0.00 79 1019.3
20260507222019 52 352 0.0 1.0 0.00 0.00 0.00 78 1019.2
20260507220947 52 327 1.0 1.0 0.00 0.00 0.00 77 1019.2
20260507215905 52 312 0.0 1.0 0.00 0.00 0.00 76 1019.3
20260507214820 53 330 0.0 2.0 0.00 0.00 0.00 75 1019.3
20260507213905 53 0.0 1.0 0.00 0.00 0.00 75 1019.2
20260507212821 53 0.0 1.0 0.00 0.00 0.00 74 1019.3
20260507211906 53 0.0 1.0 0.00 0.00 0.00 73 1019.2
20260507210822 54 320 0.0 2.0 0.00 0.00 0.00 72 1019.2
20260507205750 54 248 0.0 3.0 0.00 0.00 0.00 71 1019.0
20260507204722 54 289 1.0 3.0 0.00 0.00 0.00 71 1018.9
20260507203807 55 298 1.0 2.0 0.00 0.00 0.00 71 1018.9
20260507202723 55 0.0 0.0 0.00 0.00 0.00 71 1018.9
20260507201807 55 151 0.0 1.0 0.00 0.00 0.00 70 1018.8
20260507200725 55 0.0 1.0 0.00 0.00 0.00 69 1018.6
20260507195809 55 295 1.0 2.0 0.00 0.00 0.00 69 1018.4
20260507194725 56 304 1.0 2.0 0.00 0.00 0.00 68 1018.2
20260507193810 56 0.0 1.0 0.00 0.00 0.00 68 1018.0
20260507192726 57 0.0 1.0 0.00 0.00 0.00 66 1018.1
20260507191811 57 0.0 0.0 0.00 0.00 0.00 65 1017.8
20260507190727 57 0.0 1.0 0.00 0.00 0.00 64 1017.9
20260507185831 57 0.0 0.0 0.00 0.00 0.00 63 1017.9
20260507184748 57 0.0 0.0 0.00 0.00 0.00 60 1017.8
20260507183812 58 0.0 1.0 0.00 0.00 0.00 58 1017.8
20260507182728 58 0.0 0.0 0.00 0.00 0.00 58 1017.9
20260507181813 58 0.0 1.0 0.00 0.00 0.00 57 1017.8
20260507180729 58 0.0 1.0 0.00 0.00 0.00 56 1018.0
20260507175814 58 201 1.0 1.0 0.00 0.00 0.00 57 1017.6
20260507174730 59 0.0 1.0 0.00 0.00 0.00 57 1017.6
20260507173814 59 0.0 1.0 0.00 0.00 0.00 57 1017.7
20260507172731 59 164 1.0 2.0 0.00 0.00 0.00 57 1017.6
20260507171815 59 117 1.0 2.0 0.00 0.00 0.00 56 1017.5
20260507170731 60 329 0.0 2.0 0.00 0.00 0.00 52 1017.5
20260507165700 60 0.0 1.0 0.00 0.00 0.00 44 1017.5
20260507164632 61 281 1.0 2.0 0.00 0.00 0.00 44 1017.6
20260507163717 61 0.0 1.0 0.00 0.00 0.00 47 1017.4
20260507162635 61 301 1.0 1.0 0.00 0.00 0.00 46 1017.6
20260507161603 61 299 1.0 1.0 0.00 0.00 0.00 46 1017.6
20260507160618 61 285 1.0 1.0 0.00 0.00 0.00 44 1017.7
20260507155530 61 307 3.0 3.0 0.00 0.00 0.00 47 1017.9
20260507154615 60 0.0 1.0 0.00 0.00 0.00 46 1017.8
20260507153611 60 347 1.0 2.0 0.00 0.00 0.00 46 1018.0
20260507152616 60 323 1.0 2.0 0.00 0.00 0.00 45 1017.7
20260507151534 61 327 1.0 3.0 0.00 0.00 0.00 45 1017.8
20260507150516 62 0.0 2.0 0.00 0.00 0.00 47 1017.8
20260507145452 61 318 1.0 2.0 0.00 0.00 0.00 44 1017.6
20260507144518 62 332 1.0 3.0 0.00 0.00 0.00 43 1017.7
20260507143434 63 145 0.0 1.0 0.00 0.00 0.00 43 1017.9
20260507142600 61 21 0.0 1.0 0.00 0.00 0.00 48 1017.8
20260507141435 61 0.0 1.0 0.00 0.00 0.00 47 1017.8
20260507140519 61 20 1.0 1.0 0.00 0.00 0.00 44 1018.3
20260507135436 62 351 0.0 3.0 0.00 0.00 0.00 45 1018.1
20260507134404 61 12 1.0 2.0 0.00 0.00 0.00 46 1018.2
20260507133321 59 137 1.0 2.0 0.00 0.00 0.00 49 1018.3
20260507132257 59 0.0 0.0 0.00 0.00 0.00 48 1018.2
20260507131241 59 124 1.0 2.0 0.00 0.00 0.00 51 1018.4
20260507130306 60 141 1.0 2.0 0.00 0.00 0.00 48 1018.6
20260507125243 60 0.0 1.0 0.00 0.00 0.00 49 1018.6
20260507124307 60 0.0 2.0 0.00 0.00 0.00 45 1018.7
20260507123223 59 331 0.0 2.0 0.00 0.00 0.00 48 1018.7
20260507122308 61 0.0 2.0 0.00 0.00 0.00 49 1018.7
20260507121224 61 129 0.0 1.0 0.00 0.00 0.00 48 1018.8
20260507120308 62 333 0.0 2.0 0.00 0.00 0.00 49 1018.6
20260507115225 62 50 1.0 2.0 0.00 0.00 0.00 51 1018.9
20260507114309 62 99 1.0 1.0 0.00 0.00 0.00 54 1018.8
20260507113225 59 100 2.0 5.0 0.00 0.00 0.00 53 1018.7
20260507112311 60 307 3.0 3.0 0.00 0.00 0.00 53 1018.8
20260507111226 60 0.0 3.0 0.00 0.00 0.00 58 1018.8
20260507110312 60 0.0 1.0 0.00 0.00 0.00 58 1019.1
20260507105223 60 307 2.0 3.0 0.00 0.00 0.00 57 1019.2
20260507104140 58 31 2.0 2.0 0.00 0.00 0.00 59 1019.2
20260507103208 58 0.0 2.0 0.00 0.00 0.00 65 1019.3
20260507102124 59 19 0.0 1.0 0.00 0.00 0.00 62 1019.1
20260507101210 59 323 3.0 3.0 0.00 0.00 0.00 65 1019.2
20260507100145 56 303 0.0 1.0 0.00 0.00 0.00 71 1019.3
20260507095210 55 0.0 5.0 0.00 0.00 0.00 70 1019.2
20260507094126 55 0.0 1.0 0.00 0.00 0.00 75 1019.3
20260507093211 54 326 2.0 3.0 0.00 0.00 0.00 75 1019.4
20260507092127 53 319 3.0 3.0 0.00 0.00 0.00 81 1019.6
20260507091211 51 333 2.0 2.0 0.00 0.00 0.00 88 1019.5
20260507090129 50 306 1.0 1.0 0.00 0.00 0.00 95 1019.6
20260507085212 48 0.0 2.0 0.00 0.00 0.00 97 1019.8
20260507084129 46 0.0 1.0 0.00 0.00 0.00 98 1019.7
20260507083214 46 319 1.0 2.0 0.00 0.00 0.00 98 1019.8
20260507082129 45 0.0 0.0 0.00 0.00 0.00 99 1019.8
20260507081214 44 0.0 1.0 0.00 0.00 0.00 99 1019.6
20260507080154 44 223 1.0 1.0 0.00 0.00 0.00 98 1019.6
20260507075216 43 0.0 0.0 0.00 0.00 0.00 99 1019.4
20260507074131 43 0.0 0.0 0.00 0.00 0.00 99 1019.5
20260507073215 43 0.0 1.0 0.00 0.00 0.00 99 1019.8
20260507072133 42 0.0 1.0 0.00 0.00 0.00 99 1019.4
20260507071236 42 0.0 0.0 0.00 0.00 0.00 99 1019.5
20260507070132 42 0.0 1.0 0.00 0.00 0.00 98 1019.4
20260507065237 42 0.0 0.0 0.00 0.00 0.00 98 1019.5
20260507064134 41 327 1.0 2.0 0.00 0.00 0.00 98 1019.3
20260507063218 41 0.0 0.0 0.00 0.00 0.00 98 1019.3
20260507062134 41 0.0 0.0 0.00 0.00 0.00 98 1019.5
20260507061219 40 336 1.0 1.0 0.00 0.00 0.00 98 1019.3
20260507060135 40 327 0.0 1.0 0.00 0.00 0.00 98 1019.2
20260507055239 40 316 0.0 2.0 0.00 0.00 0.00 98 1019.3
20260507054136 40 0.0 1.0 0.00 0.00 0.00 98 1019.1
20260507053220 40 303 0.0 1.0 0.00 0.00 0.00 98 1019.1
20260507052137 41 0.0 1.0 0.00 0.00 0.00 98 1019.0
20260507051222 41 0.0 0.0 0.00 0.00 0.00 98 1018.9
20260507050137 41 0.0 1.0 0.00 0.00 0.00 98 1018.9
20260507045222 41 158 1.0 1.0 0.00 0.00 0.00 98 1019.0
20260507044140 41 0.0 0.0 0.00 0.00 0.00 97 1018.7
20260507043244 41 0.0 1.0 0.00 0.00 0.00 97 1018.9
20260507042139 41 159 1.0 2.0 0.00 0.00 0.00 97 1018.7
20260507041223 41 0.0 0.0 0.00 0.00 0.00 97 1018.9
20260507040140 41 0.0 0.0 0.00 0.00 0.00 97 1018.8
20260507035224 41 0.0 0.0 0.00 0.00 0.00 97 1018.9
20260507034141 40 0.0 0.0 0.00 0.00 0.00 97 1019.0
20260507033225 40 0.0 0.0 0.00 0.00 0.00 97 1018.8
20260507032141 39 0.0 0.0 0.00 0.00 0.00 97 1018.8
20260507031226 37 0.0 0.0 0.00 0.00 0.00 97 1019.0
20260507030143 37 0.0 0.0 0.00 0.00 0.00 96 1018.7
20260507025307 37 0.0 0.0 0.00 0.00 0.00 96 1018.8
20260507024143 37 0.0 0.0 0.00 0.00 0.00 96 1018.7
20260507023247 37 0.0 0.0 0.00 0.00 0.00 96 1018.6
20260507022144 38 0.0 0.0 0.00 0.00 0.00 96 1018.7
20260507021228 38 0.0 0.0 0.00 0.00 0.00 96 1018.8
20260507020145 38 0.0 0.0 0.00 0.00 0.00 96 1018.6
20260507015150 38 0.0 0.0 0.00 0.00 0.00 96 1018.6